Regional Weather Roundup
Issued by NWS Wakefield, VA

Home | Current Version | Previous Version | Text Only | Print | Product List | Glossary Off
Versions: 1 2 3 4 5 6 7 8 9 10 11 12 13 14 15 16 17 18 19 20 21 22 23 24 25 26 27 28 29 30 31 32 33 34 35 36 37 38 39 40 41 42 43 44 45 46 47 48 49 50

000
ASUS41 KAKQ 022310
RWRAKQ

REGIONAL WEATHER ROUNDUP
NATIONAL WEATHER SERVICE WAKEFIELD VA
700 PM EDT TUE SEP 02 2014

Note: "fair" indicates few or no clouds below 12,000 feet with no
significant weather and/or obstructions to visibility. * = Denotes
station may not report precipitation (e.g., rain,snow,etc.),
thunder or fog.

VAZ042-051-052>054-056-030000-
NORTHERN VIRGINIA

CITY           SKY/WX    TMP DP  RH WIND       PRES   REMARKS
WASH NATIONAL  MOCLDY    90  71  53 S7        29.86F HX  96
DULLES         TSTM      75  71  87 NW9G23    29.90R FOG
FORT BELVOIR   PTCLDY    84  75  74 SE2       29.86F
QUANTICO       PTCLDY    89  70  53 W6        29.86F
FREDERICKSBRG* PTCLDY    90  70  51 SW5       29.85F HX  95
STAFFORD*      PTCLDY    86  71  60 CALM      29.90F
WARRENTON      PTCLDY    88  77  69 S3        29.86F HX  99
CULPEPER*      MOCLDY   N/A N/A N/A SW6       29.87S
MANASSAS*      CLEAR     86  75  70 S5        29.86S HX  95
LEESBURG*      TSTM      73  73 100 NE7       29.89S
WINCHESTER     CLOUDY    79  64  61 E3        29.90F
$$

VAZ048-049-060>072-079>083-030000-
CENTRAL AND SOUTH CENTRAL VIRGINIA...AND NORTH CENTRAL NORTH CAROLINA

CITY           SKY/WX    TMP DP  RH WIND       PRES   REMARKS
RICHMOND       PTCLDY    92  67  43 SW14      29.89R HX  95
CHESTERFIELD*  CLEAR     90  64  43 S6        29.92R
PETERSBURG*    CLEAR     86  68  54 S3        29.92S
HANOVER        CLEAR     92  66  42 SW9       29.89S
TAPPAHANNOCK*  CLEAR     87  67  51 S3        29.88S
CHARLOTTSVILLE MOCLDY    86  69  56 SW8       29.89S
ORANGE*        MOCLDY    88  68  51 S9        29.89S
LOUISA*        MOCLDY    88  70  55 SW3       29.88S
FARMVILLE*     PTCLDY    88  68  51 S5        29.89S
SOUTH HILL*    CLEAR     88  77  70 CALM      29.98S HX 100
ROANOKE RAPIDS CLEAR     88  70  55 S5        29.93S
RALEIGH        PTCLDY    81  69  67 SW10      29.98R
$$

VAZ088>098-030000-
SOUTHEAST VIRGINIA

CITY           SKY/WX    TMP DP  RH WIND       PRES   REMARKS
NORFOLK        CLEAR     92  68  45 SW16      29.90S HX  96
VIRGINIA BEACH PTCLDY    90  68  48 SW10      29.91R
NORFOLK NAVAL  PTCLDY    93  71  48 SW10      29.92R HX 100
WEST POINT*    NOT AVBL
NEWPORT NEWS   CLEAR     94  70  45 SW12      29.90S HX 100
LANGLEY AFB    CLEAR     91  72  52 SW12      29.90R HX  98
FORT EUSTIS    CLEAR     91  68  47 SW6       29.89R
WILLIAMSBURG*  CLEAR     93  70  46 SW7       29.91R HX  99
FRANKLIN*      CLEAR     90  72  55 SW5       29.92R HX  96
WAKEFIELD      CLEAR     91  69  48 SW3       29.91S HX  96
$$

VAZ020-022-025-037-045-030000-
WESTERN AND SOUTHWEST VIRGINIA

CITY           SKY/WX    TMP DP  RH WIND       PRES   REMARKS
STAUNTON*      MOCLDY    85  64  48 SW6       29.95R
HOT SPRINGS VA LGT RAIN  65  60  83 W13       30.12F
LYNCHBURG      MOCLDY    83  72  69 SW5       29.95S
DANVILLE       MOCLDY    87  71  58 SW5       29.94S
MARTINSVILLE   PTCLDY    84  73  69 CALM      29.98S
ROANOKE        MOCLDY    86  69  56 SW7       29.97R
BLACKSBURG     PTCLDY    81  70  69 S5        30.04S
DUBLIN*        PTCLDY    82  70  66 S5        30.04S
MARION*        PTCLDY   N/A N/A N/A W3        30.08R
HILLSVILLE*    CLEAR     78  68  69 S5        30.07R
RICHLANDS*     PTCLDY    82  66  58 SW3       30.06R
WISE*          MOSUNNY   77  64  65 SW8       30.06S
ABINGDON*      SUNNY     85  65  51 NW5       30.02S
$$

MDZ021>025-VAZ099-100-030000-
SOUTHERN MARYLAND AND THE DELMARVA PENINSULA

CITY           SKY/WX    TMP DP  RH WIND       PRES   REMARKS
PATUXENT RIVER PTCLDY    85  76  74 SE5       29.85F
BAY BRIDGE APT   N/A     86  68  54 S5        29.85F
LEONARDTOWN    CLEAR     88  68  51 CALM      29.88S
DOVER          CLEAR     87  70  57 S7        29.84F
GEORGETOWN     CLEAR     87  69  54 S12       29.87F
EASTON         MOCLDY    91  72  52 S9        29.89F HX  98
CAMBRIDGE      CLEAR     90  72  55 S5        29.86F HX  96
SALISBURY      CLEAR     89  71  55 S5        29.87F HX  95
OCEAN CITY     CLEAR     83  77  82 SW6       29.88S
WALLOPS ISLAND CLEAR     85  77  77 SW13      29.89F HX  95
ACCOMACK*      NOT AVBL
$$

NCZ012>017-030>032-030000-
EASTERN NORTH CAROLINA

CITY           SKY/WX    TMP DP  RH WIND       PRES   REMARKS
ELIZABETH CITY CLEAR     86  73  65 SW6       29.93S
AHOSKIE*       CLEAR     86  73  64 CALM      29.94R
EDENTON*       CLEAR     89  74  61 SW8       29.94S HX  97
CURRITUCK*     CLEAR     91  66  43 SW3       29.94R
KILL DEVIL HLS CLEAR     86  77  74 S8        29.94R HX  97
MANTEO         CLEAR     85  78  78 S18       29.95S HX  97
CAPE HATTERAS  CLEAR     81  77  88 SW16G23   29.99S
GOLDSBORO      TSTM      77  77 100 N12       29.98R
WASHINGTON     CLEAR     87  73  63 S9G20     29.97R
GREENVILLE     PTCLDY    88  77  70 SW9       29.98R HX 100
NEW BERN       PTCLDY    84  75  74 S7        29.99R
WILMINGTON     PTCLDY    83  73  72 SW12      30.01S
$$

VAZ048-030000-
ELSEWHERE

CITY           SKY/WX    TMP DP  RH WIND       PRES   REMARKS
HARRISBURG PA  CLOUDY    75  69  81 SW14      29.84S
BALTIMORE      TSTM      79  69  71 N6        29.87S
ANNAPOLIS        N/A     84  74  71 N7        29.85
ANDREWS AFB    MOCLDY    87  72  61 S6        29.87F
WILMINGTON DE  PTCLDY    87  71  58 SW7       29.85F
PHILADELPHIA   MOCLDY    89  70  53 SW14      29.84F
WILDWOOD NJ*   CLEAR     84  72  65 S5        29.88S
ATLANTIC CITY  CLEAR     85  71  63 S8        29.86S
HENDERSON NC   PTCLDY    89  65  45 S8        29.95R
GREENSBORO     MOCLDY    87  71  58 S9        29.96F
ROCKY MOUNT    MOCLDY    82  69  64 SW17G38   29.98R
FAYETTEVILLE   LGT RAIN  77  75  93 S8        29.96F
CHARLOTTE      MOCLDY    88  66  48 S10       29.97R
$$

VAZ100-030000-
MARINE

STATION/POSITION TIME  TEMP    WIND        PRES    WAVE   SWELL
                       AIR SEA DIR/SP/G            HT/PER HT/PER
                 (UTC) (F)     (DEG/KT/KT) (MB)    (FT/S) (FT/S)
44066 TX TWR #4  2300   78 76  220/ 12/ 14 1011.4S   3/ 5   2/ 6
CAPE MAY NJ      2300   83 81  180/  4/  5 1011.0S
LEWES DE         2300   89 78  240/  5/  8 1011.2R
15NM E FENWICK I 2300   79 77              1011.6F   3/ 8
OCEAN-CITY-INLET 2300   79 77  210/  9/ 11 1011.5F
WACHAPREAGUE VA  2300   86 87  190/  7/  9 1012.0S
THOMAS POINT MD  2300   84 80  180/ 13/ 14 1011.6F
GOOSES REEF MD   2300   83     180/ 10/ 10 1011.5F
COVE POINT MD    2300   82     180/ 11/ 12 1011.1R
SOLOMONS ISLAND  2300      83                N/A
BISHOPS HEAD MD  2300   87     180/ 10/ 12 1010.9F
PINEY POINT MD   2300          210/ 10/ 12   N/A
POTOMAC MD       2300   86     180/  8/ 10 1010.8R
CAMBRIDGE MD     2300   88 80  160/  3/  8 1011.0F
LEWISETTA VA     2300   91 84  220/ 10/ 14 1010.9F
RAPPAHANNOCK LGT 2300          200/ 14/ 15 1012.2S
STINGRAY PT      2300   89     210/  8/ 10   N/A
YORK RVR RNG VA  2300   90     230/ 15/ 17 1011.5R
YORKTOWN VA      2300   92 81  230/  8/ 10 1011.8R
JAMESTOWN VA     2300   90     240/  8/ 10   N/A
DOMINION TERM VA 2300   87     230/  9/ 10 1012.6F
KIPTOPEKE VA     2300      84  240/ 10/ 11   N/A
CHES BAY BRIDGE  2300   90 78  210/ 13/ 15 1012.0S
CAPE HENRY VA    2300   92     210/  6/  9 1011.3S
CHESAPEAKE LGHT  2200   85     200/ 17/ 17 1013.3F
WILLOUBY STN VA  2300   88     260/  7/ 10 1011.4S
S CRANEY ISL VA  2300          200/ 10/ 16 1012.4S
CAPE HENRY BUOY  2200      81                N/A     2/11
1ST LANDING BUOY 2300   89     240/ 10/ 14 1012.2R
CAPE CHARLES BUO 2300      81                N/A     2/ 9   2/ 9
OFFSHORE WE BUOY 2300      80                N/A     3/11   2/11
64NM E OF VA BCH 2300   80 78  200/ 16/ 17 1013.1F   3/ 4   2/11
DUCK PIER NC     2300   89 76  200/ 11/ 14 1012.9S
44056 DUCK FRF   2300                        N/A     2/11   2/11
OREGON INLET NC  2300   83 85  190/ 19/ 22 1014.4S
HATTERAS NC      2300   83 84  210/ 13/ 19 1015.8S
DIAMOND SHLS NC  2300   82     210/ 17/ 19 1015.3F   4/ 4   2/ 8
CAPE LOOKOUT NC  2200   83     210/ 14/ 17 1015.9F
$$



USA.gov is the U.S. government's official web portal to all federal, state and local government web resources and services.